Location: Allen Fire Department Station 4
(33.1073°N, 96.6988°W)
Time: 22:51:25
(UTC+00:00)

Cosmos 1763 Rocket - Pass Details

Date: 03 July 2022
Orbit: 732 x 780 km, 74.0° (Epoch: 18 August)

Event Time Altitude Azimuth Distance (km) Brightness Sun altitude
Exits shadow 08:41:34 17° 297° (WNW) 1,874 5.4 -25.9°
Maximum altitude 08:41:36 17° 298° (WNW) 1,874 5.4 -25.9°
Drops below altitude 10° 08:44:55 10° 337° (NNW) 2,311 6.4 -25.5°
Sets 08:48:12 0° 358° (N) 3,250 7.5 -25.1°
